Location: Bannatyne
(13.0833°N, 59.5333°W)
Time: 07:38:48
(UTC+00:00)

Envisat - Pass Details

Date: 27 June 2021
Orbit: 764 x 766 km, 98.2° (Epoch: 03 August)

Event Time Altitude Azimuth Distance (km) Brightness Sun altitude
Rises 08:15:09 0° 34° (NNE) 3,220 7.4 -18.1°
Reaches altitude 10° 08:17:55 10° 48° (NE) 2,294 6.7 -17.5°
Maximum altitude 08:21:50 23° 100° (E) 1,588 5.2 -16.6°
Drops below altitude 10° 08:25:45 10° 151° (SSE) 2,292 5.5 -15.8°
Sets 08:28:29 0° 165° (SSE) 3,217 6.1 -15.2°
